| time (UTC) | temp F | wind direction | speed MPH | gust MPH | rain 1hr in | rain 24hr in | rain mn in | humidity % | barometer mb |
| 20260508230254 | 55 | 306 | 0.0 | 0.0 | 0.00 | 0.00 | 0.00 | 97 | 1030.5 |
| 20260508224751 | 54 | 319 | 0.0 | 0.0 | 0.00 | 0.00 | 0.00 | 98 | 1030.2 |
| 20260508223249 | 54 | 292 | 0.0 | 0.0 | 0.00 | 0.00 | 0.00 | 98 | 1030.2 |
| 20260508221745 | 53 | 266 | 0.0 | 0.0 | 0.00 | 0.00 | 0.00 | 98 | 1030.0 |
| 20260508220240 | 52 | 286 | 0.0 | 0.0 | 0.00 | 0.00 | 0.00 | 98 | 1030.1 |
| 20260508214736 | 52 | 291 | 0.0 | 0.0 | 0.00 | 0.00 | 0.00 | 98 | 1030.1 |
| 20260508213232 | 52 | 293 | 0.0 | 0.0 | 0.00 | 0.00 | 0.00 | 98 | 1029.8 |
| 20260508211733 | 52 | 257 | 0.0 | 0.0 | 0.00 | 0.00 | 0.00 | 98 | 1029.6 |
| 20260508210229 | 52 | 307 | 0.0 | 0.0 | 0.00 | 0.00 | 0.00 | 98 | 1029.6 |
| 20260508204724 | 52 | 268 | 0.0 | 0.0 | 0.00 | 0.00 | 0.00 | 98 | 1029.7 |
| 20260508203219 | 51 | 268 | 0.0 | 0.0 | 0.00 | 0.00 | 0.00 | 98 | 1029.5 |
| 20260508201715 | 51 | 260 | 0.0 | 0.0 | 0.00 | 0.00 | 0.00 | 98 | 1029.4 |
| 20260508200210 | 51 | 271 | 0.0 | 0.0 | 0.00 | 0.00 | 0.00 | 98 | 1029.1 |
| 20260508194706 | 51 | 283 | 0.0 | 0.0 | 0.00 | 0.00 | 0.00 | 97 | 1029.1 |
| 20260508193202 | 51 | 280 | 0.0 | 0.0 | 0.00 | 0.00 | 0.00 | 97 | 1029.1 |
| 20260508191659 | 52 | 247 | 0.0 | 0.0 | 0.00 | 0.00 | 0.00 | 97 | 1029.1 |
| 20260508190155 | 51 | 269 | 0.0 | 0.0 | 0.00 | 0.00 | 0.00 | 97 | 1029.0 |
| 20260508184652 | 51 | 262 | 0.0 | 0.0 | 0.00 | 0.00 | 0.00 | 97 | 1028.7 |
| 20260508183148 | 51 | 268 | 0.0 | 0.0 | 0.00 | 0.00 | 0.00 | 97 | 1028.8 |
| 20260508181642 | 52 | 279 | 0.0 | 0.0 | 0.00 | 0.00 | 0.00 | 97 | 1029.0 |
| 20260508180139 | 52 | 279 | 0.0 | 0.0 | 0.00 | 0.00 | 0.00 | 97 | 1029.2 |
| 20260508174636 | 51 | 281 | 0.0 | 0.0 | 0.00 | 0.00 | 0.00 | 97 | 1029.1 |
| 20260508173131 | 51 | 262 | 0.0 | 0.0 | 0.00 | 0.00 | 0.00 | 97 | 1029.3 |
| 20260508171627 | 51 | 282 | 0.0 | 0.0 | 0.00 | 0.00 | 0.00 | 96 | 1029.3 |
| 20260508170124 | 51 | 287 | 0.0 | 0.0 | 0.00 | 0.00 | 0.00 | 96 | 1029.3 |
| 20260508164620 | 51 | 253 | 0.0 | 0.0 | 0.00 | 0.00 | 0.00 | 96 | 1029.1 |
| 20260508163117 | 51 | 292 | 0.0 | 0.0 | 0.00 | 0.00 | 0.00 | 96 | 1029.1 |
| 20260508161614 | 51 | 262 | 0.0 | 0.0 | 0.00 | 0.00 | 0.00 | 96 | 1029.2 |
| 20260508160113 | 51 | 269 | 0.0 | 0.0 | 0.00 | 0.00 | 0.00 | 95 | 1029.4 |
| 20260508154609 | 51 | 283 | 0.0 | 0.0 | 0.00 | 0.00 | 0.00 | 95 | 1029.2 |
| 20260508153105 | 52 | 254 | 0.0 | 0.0 | 0.00 | 0.00 | 0.00 | 95 | 1029.4 |
| 20260508151601 | 52 | 281 | 0.0 | 0.0 | 0.00 | 0.00 | 0.00 | 94 | 1029.4 |
| 20260508150056 | 52 | 266 | 0.0 | 0.0 | 0.00 | 0.00 | 0.00 | 94 | 1029.5 |
| 20260508144553 | 52 | 260 | 0.0 | 0.0 | 0.00 | 0.00 | 0.00 | 93 | 1029.6 |
| 20260508143050 | 53 | 270 | 0.0 | 0.0 | 0.00 | 0.02 | 0.02 | 93 | 1029.7 |
| 20260508141546 | 54 | 276 | 0.0 | 0.0 | 0.00 | 0.02 | 0.02 | 93 | 1029.6 |
| 20260508140043 | 54 | 290 | 0.0 | 0.0 | 0.00 | 0.02 | 0.02 | 93 | 1029.6 |
| 20260508134544 | 53 | 293 | 0.0 | 0.0 | 0.00 | 0.02 | 0.02 | 92 | 1029.6 |
| 20260508133041 | 54 | 267 | 0.0 | 0.0 | 0.00 | 0.02 | 0.02 | 92 | 1029.8 |
| 20260508131536 | 54 | 291 | 0.0 | 0.0 | 0.00 | 0.02 | 0.02 | 92 | 1029.8 |
| 20260508130033 | 54 | 258 | 0.0 | 0.0 | 0.00 | 0.02 | 0.02 | 92 | 1029.9 |
| 20260508124530 | 54 | 274 | 0.0 | 0.0 | 0.00 | 0.02 | 0.02 | 92 | 1030.0 |
| 20260508123027 | 53 | 271 | 0.0 | 0.0 | 0.00 | 0.02 | 0.02 | 92 | 1030.3 |
| 20260508121525 | 53 | 284 | 0.0 | 0.0 | 0.00 | 0.02 | 0.02 | 90 | 1030.1 |
| 20260508120024 | 53 | 268 | 0.0 | 0.0 | 0.00 | 0.02 | 0.02 | 89 | 1030.1 |
| 20260508114520 | 54 | 278 | 0.0 | 0.0 | 0.00 | 0.02 | 0.02 | 89 | 1030.0 |
| 20260508113017 | 54 | 268 | 0.0 | 0.0 | 0.00 | 0.02 | 0.02 | 88 | 1030.0 |
| 20260508111513 | 55 | 273 | 0.0 | 0.0 | 0.00 | 0.02 | 0.02 | 86 | 1030.1 |
| 20260508110009 | 55 | 269 | 1.0 | 1.0 | 0.00 | 0.02 | 0.02 | 85 | 1029.8 |
| 20260508104505 | 56 | 268 | 0.0 | 1.0 | 0.00 | 0.02 | 0.02 | 84 | 1030.1 |
| 20260508103001 | 56 | 220 | 1.0 | 2.0 | 0.00 | 0.02 | 0.02 | 82 | 1029.9 |
| 20260508101459 | 57 | 264 | 0.0 | 0.0 | 0.00 | 0.02 | 0.02 | 82 | 1030.0 |
| 20260508095956 | 56 | 288 | 0.0 | 0.0 | 0.00 | 0.02 | 0.02 | 84 | 1029.9 |
| 20260508094454 | 56 | 271 | 0.0 | 0.0 | 0.00 | 0.02 | 0.02 | 87 | 1029.8 |
| 20260508092951 | 56 | 269 | 0.0 | 0.0 | 0.00 | 0.02 | 0.02 | 87 | 1029.8 |
| 20260508091449 | 57 | 268 | 0.0 | 0.0 | 0.00 | 0.02 | 0.02 | 87 | 1029.7 |
| 20260508085947 | 57 | 275 | 0.0 | 0.0 | 0.00 | 0.02 | 0.02 | 86 | 1029.4 |
| 20260508084443 | 58 | 286 | 0.0 | 0.0 | 0.00 | 0.02 | 0.02 | 86 | 1029.6 |
| 20260508082938 | 58 | 286 | 1.0 | 2.0 | 0.00 | 0.02 | 0.02 | 85 | 1029.3 |
| 20260508081436 | 59 | 287 | 0.0 | 0.0 | 0.00 | 0.02 | 0.02 | 84 | 1029.3 |
| 20260508075932 | 59 | 292 | 0.0 | 0.0 | 0.00 | 0.02 | 0.02 | 83 | 1029.2 |
| 20260508074430 | 59 | 278 | 0.0 | 0.0 | 0.00 | 0.02 | 0.02 | 82 | 1029.1 |
| 20260508072927 | 60 | 282 | 1.0 | 1.0 | 0.00 | 0.02 | 0.02 | 80 | 1029.0 |
| 20260508071425 | 61 | 283 | 0.0 | 1.0 | 0.00 | 0.02 | 0.02 | 77 | 1029.0 |
| 20260508065924 | 62 | 291 | 1.0 | 1.0 | 0.00 | 0.02 | 0.02 | 78 | 1028.9 |
| 20260508064422 | 62 | 235 | 1.0 | 2.0 | 0.00 | 0.02 | 0.02 | 79 | 1029.0 |
| 20260508062920 | 62 | 287 | 0.0 | 1.0 | 0.00 | 0.02 | 0.02 | 78 | 1028.9 |
| 20260508061418 | 62 | 284 | 0.0 | 0.0 | 0.00 | 0.02 | 0.02 | 79 | 1029.0 |
| 20260508055913 | 62 | 277 | 0.0 | 1.0 | 0.00 | 0.02 | 0.02 | 77 | 1029.1 |
| 20260508054410 | 64 | 275 | 2.0 | 3.0 | 0.00 | 0.02 | 0.02 | 73 | 1029.1 |
| 20260508052907 | 64 | 293 | 1.0 | 1.0 | 0.00 | 0.02 | 0.02 | 73 | 1028.7 |
| 20260508051402 | 63 | 279 | 0.0 | 0.0 | 0.00 | 0.02 | 0.02 | 74 | 1028.9 |
| 20260508045903 | 62 | 308 | 1.0 | 1.0 | 0.00 | 0.02 | 0.02 | 75 | 1029.0 |
| 20260508044401 | 62 | 273 | 0.0 | 0.0 | 0.00 | 0.02 | 0.02 | 78 | 1029.1 |
| 20260508042856 | 64 | 259 | 0.0 | 1.0 | 0.00 | 0.02 | 0.02 | 72 | 1029.2 |
| 20260508041353 | 62 | 287 | 0.0 | 0.0 | 0.00 | 0.02 | 0.02 | 80 | 1029.2 |
| 20260508035850 | 62 | 279 | 0.0 | 1.0 | 0.00 | 0.02 | 0.02 | 83 | 1029.2 |
| 20260508034347 | 62 | 290 | 1.0 | 2.0 | 0.00 | 0.02 | 0.02 | 87 | 1029.5 |
| 20260508032845 | 60 | 276 | 0.0 | 0.0 | 0.00 | 0.02 | 0.02 | 90 | 1029.9 |
| 20260508031342 | 60 | 282 | 0.0 | 0.0 | 0.07 | 0.02 | 0.02 | 88 | 1029.9 |
| 20260508025838 | 61 | 218 | 0.0 | 1.0 | 0.00 | 0.01 | 0.01 | 88 | 1029.9 |
| 20260508024334 | 60 | 289 | 0.0 | 0.0 | 0.00 | 0.01 | 0.01 | 90 | 1030.2 |
| 20260508022830 | 59 | 299 | 1.0 | 2.0 | 0.00 | 0.01 | 0.01 | 89 | 1030.5 |
| 20260508021325 | 60 | 282 | 0.0 | 0.0 | 0.00 | 0.01 | 0.01 | 90 | 1030.6 |
| 20260508015822 | 59 | 276 | 0.0 | 0.0 | 0.00 | 0.00 | 0.00 | 89 | 1030.7 |
| 20260508014320 | 60 | 291 | 1.0 | 1.0 | 0.00 | 0.00 | 0.00 | 86 | 1030.8 |
| 20260508012814 | 60 | 288 | 0.0 | 1.0 | 0.00 | 0.00 | 0.00 | 88 | 1031.1 |
| 20260508011312 | 59 | 285 | 0.0 | 0.0 | 0.00 | 0.00 | 0.00 | 86 | 1031.3 |
| 20260508005809 | 59 | 292 | 0.0 | 1.0 | 0.00 | 0.00 | 0.00 | 83 | 1031.1 |
| 20260508004304 | 59 | 276 | 0.0 | 0.0 | 0.00 | 0.00 | 0.00 | 85 | 1031.2 |
| 20260508002800 | 57 | 243 | 1.0 | 1.0 | 0.00 | 0.00 | 0.00 | 87 | 1031.3 |
| 20260508001255 | 57 | 290 | 0.0 | 0.0 | 0.00 | 0.00 | 0.00 | 88 | 1031.2 |
| 20260507235751 | 57 | 267 | 1.0 | 1.0 | 0.00 | 0.00 | 0.00 | 87 | 1031.2 |
| 20260507234248 | 57 | 282 | 0.0 | 0.0 | 0.00 | 0.00 | 0.00 | 85 | 1031.2 |
| 20260507232745 | 57 | 272 | 0.0 | 0.0 | 0.00 | 0.00 | 0.00 | 84 | 1031.0 |
| 20260507231241 | 57 | 268 | 0.0 | 0.0 | 0.00 | 0.00 | 0.00 | 82 | 1030.9 |